User: anonymous   Login
Location: Unspecified
(0.0000°N, 0.0000°E)
Time: 01:23:31
(UTC+00:00)
Language:

GEOEYE 1 - Orbit

View from above orbital plane
View from above orbital plane
View from above satellite
View from above satellite

Ground track
Ground track

The orbit data is extracted from the following two-line orbital elements,

1 33331U 08042A   17149.19402521 -.00000015 +00000-0 +62653-5 0  9997
2 33331 098.1099 224.6684 0009299 331.6752 028.3922 14.64153501466326
Epoch (UTC): 29 May 2017 04:39:23
Eccentricity: 0.0009299
inclination: 98.1099°
perigee height: 673 km
apogee height: 686 km
right ascension of ascending node: 224.6684°
argument of perigee: 331.6752°
revolutions per day: 14.64153501
mean anomaly at epoch: 28.3922°
orbit number at epoch: 46632

The dashed part of the orbit path shows where the satellite is in the earth's shadow,  

DLR